Custer, SD

8:54 AM MDT on May 27, 2018 (GMT -0600)
Custer County

Weather History for KCUT - October, 2012

Change the Weather History Date:

Friday, October 19, 2012

  Actual Average Record
Temperature  
Mean Temperature 46 °F 42 °F  
Max Temperature 63 °F 53 °F 78 °F (1958)
Min Temperature 28 °F 30 °F 5 °F (1976)
Degree Days  
Heating Degree Days 19 23  
Month to date heating degree days 430 391  
Since 1 July heating degree days 711 877  
Cooling Degree Days 0 0  
Month to date cooling degree days 0 0  
Year to date cooling degree days 390 177  
Moisture  
Dew Point 20 °F    
Average Humidity 40    
Maximum Humidity 56    
Minimum Humidity 24    
Precipitation  
Precipitation 0.00 in 0.04 in 0.75 in (1983)
Month to date precipitation 0.78 1.09  
Year to date precipitation 11.06 17.58  
Sea Level Pressure  
Sea Level Pressure 29.85 in    
Wind  
Wind Speed 5 mph (West)    
Max Wind Speed 16 mph    
Max Gust Speed 24 mph    
Visibility 10 miles    
Events      
T = Trace of Precipitation, MM = Missing Value Source: NWS Daily Summary

Daily Weather History Graph

Daily Weather History Graph

Search for Another Location

Airport or City:

Astronomy

Oct. 19, 2012 Rise Set
Actual Time 7:14 AM MDT 6:03 PM MDT
Civil Twilight 6:45 AM MDT 6:32 PM MDT
Nautical Twilight 6:11 AM MDT 7:06 PM MDT
Astronomical Twilight 5:38 AM MDT 7:39 PM MDT
Moon 12:06 PM MDT (10/19) 9:38 PM MDT (10/19)
Length of Visible Light 11h 47m
Length of Day
10h 49m
Waxing Crescent, 24% of the Moon is Illuminated
Oct 19
Waxing Crescent
Oct 21
First Quarter
Oct 29
Full
Nov 6
Last Quarter
Nov 13
New

Hourly Weather History & Observations

Time (MDT) Temp. Windchill Dew Point Humidity Pressure Visibility Wind Dir Wind Speed Gust Speed Precip Events Conditions
12:53 AM 30.9 °F - 3.0 °F 31% 30.02 in 10.0 mi Calm Calm - N/A   Clear
1:53 AM 30.9 °F - 10.0 °F 42% 30.01 in 10.0 mi Calm Calm - N/A   Clear
2:53 AM 35.1 °F - 14.0 °F 42% 29.99 in 10.0 mi Calm Calm - N/A   Clear
3:53 AM 30.9 °F 27.5 °F 12.9 °F 47% 30.00 in 10.0 mi WSW 3.5 mph - N/A   Clear
4:53 AM 32.0 °F - 14.0 °F 48% 29.98 in 10.0 mi Calm Calm - N/A   Clear
5:53 AM 32.0 °F - 15.1 °F 50% 29.98 in 10.0 mi Calm Calm - N/A   Clear
6:53 AM 32.0 °F - 17.1 °F 54% 29.98 in 10.0 mi Calm Calm - N/A   Clear
7:53 AM 34.0 °F - 19.0 °F 54% 29.99 in 10.0 mi Calm Calm - N/A   Clear
8:53 AM 43.0 °F 41.3 °F 19.9 °F 40% 29.96 in 10.0 mi WSW 3.5 mph - N/A   Clear
9:53 AM 50.0 °F - 21.0 °F 32% 29.90 in 10.0 mi SW 4.6 mph - N/A   Clear
10:53 AM 53.1 °F - 21.0 °F 29% 29.87 in 10.0 mi West 9.2 mph - N/A   Clear
11:53 AM 57.9 °F - 23.0 °F 26% 29.85 in 10.0 mi West 11.5 mph 17.3 mph N/A   Clear
12:53 PM 61.0 °F - 25.0 °F 25% 29.78 in 10.0 mi WSW 9.2 mph 18.4 mph N/A   Clear
1:53 PM 59.0 °F - 23.0 °F 25% 29.77 in 10.0 mi WSW 9.2 mph 17.3 mph N/A   Clear
2:53 PM 61.0 °F - 24.1 °F 24% 29.73 in 10.0 mi SW 9.2 mph 19.6 mph N/A   Clear
3:53 PM 61.0 °F - 24.1 °F 24% 29.73 in 10.0 mi WSW 11.5 mph - N/A   Clear
4:53 PM 59.0 °F - 25.0 °F 27% 29.74 in 10.0 mi West 10.4 mph - N/A   Clear
5:53 PM 53.1 °F - 25.0 °F 34% 29.77 in 10.0 mi WSW 4.6 mph - N/A   Clear
6:53 PM 51.1 °F - 26.1 °F 38% 29.78 in 10.0 mi West 4.6 mph - N/A   Clear
7:53 PM 51.1 °F - 25.0 °F 36% 29.76 in 10.0 mi WNW 3.5 mph - N/A   Clear
8:53 PM 46.9 °F - 25.0 °F 42% 29.74 in 10.0 mi West 4.6 mph - N/A   Clear
9:53 PM 42.1 °F 38.4 °F 24.1 °F 49% 29.73 in 10.0 mi West 5.8 mph - N/A   Clear
10:53 PM 42.1 °F 40.2 °F 23.0 °F 47% 29.71 in 10.0 mi NW 3.5 mph - N/A   Clear
11:53 PM 42.1 °F - 23.0 °F 47% 29.69 in 10.0 mi Calm Calm - N/A   Clear